Theta_e
334 337 338 339 340 342 344 344 345 345 346 345 345 345 346 347 347 346 347 348 348 346 346 344 342 342 342 343 342 343 343 343 344 343 348 353 358 359 360 363 361 362 361 359 360 366 358 359 360 358 357 356 355 353 355 357 362 358 356 356 357 351 351 351 345 349 339 336 339 338 340 340 350 343 337 336 340 340 339 346 347 348 349 349 351
335 335 337 337 337 340 342 342 345 341 343 343 343 344 345 346 346 346 347 347 347 346 346 345 343 342 341 341 341 342 342 343 341 344 351 356 357 358 361 362 361 362 362 359 360 357 356 360 361 357 358 357 360 360 360 366 358 356 354 349 353 353 349 352 348 341 338 332 334 334 340 338 343 342 336 334 336 336 336 341 340 342 345 347 349
333 335 335 336 337 339 340 339 341 342 341 342 343 344 345 345 345 346 346 347 347 347 346 344 344 345 343 342 342 342 344 346 344 350 355 354 356 358 361 360 361 360 360 361 359 360 359 358 359 358 358 362 354 352 355 355 357 357 354 349 347 350 353 357 352 345 336 343 341 334 329 331 335 340 344 343 342 344 335 337 339 338 338 339 341
331 332 334 335 336 337 336 338 340 341 341 342 343 344 345 346 345 346 346 347 346 348 350 346 347 346 346 344 344 346 344 349 350 353 354 355 356 359 360 361 361 360 361 362 361 359 359 358 358 359 357 362 355 353 353 355 353 355 355 358 349 346 351 350 360 354 346 338 334 333 332 334 325 327 336 339 342 344 342 332 337 337 339 339 339
330 332 333 335 335 335 336 338 339 339 341 342 343 344 346 345 346 346 346 347 346 352 351 347 350 346 345 346 350 349 350 349 349 349 352 355 356 356 358 361 361 360 361 362 362 359 358 357 356 357 359 360 359 356 356 356 355 355 355 353 350 347 348 349 353 361 354 347 342 336 330 326 327 327 336 333 343 343 348 342 345 340 334 333 339
331 332 333 335 335 335 336 337 337 339 340 342 344 345 346 346 346 346 346 347 347 348 351 349 350 344 341 340 341 341 342 344 345 346 348 353 354 356 358 361 360 359 359 359 361 363 358 357 356 356 357 359 361 359 358 356 354 353 355 354 354 354 351 346 347 355 357 356 347 336 334 328 330 334 331 326 338 346 348 341 343 341 338 340 340
332 333 334 334 334 335 336 336 337 338 341 343 344 344 347 347 346 346 346 347 348 348 349 352 345 345 342 340 341 341 340 343 346 348 350 352 355 354 355 358 358 358 358 358 363 362 359 358 356 357 358 360 365 358 355 356 356 354 359 356 355 359 352 345 346 351 350 351 356 352 354 350 343 336 331 336 326 332 337 337 339 341 340 341 340
332 332 333 335 335 336 335 336 337 339 342 343 343 345 346 346 346 346 347 350 347 349 350 350 346 345 342 341 343 342 342 343 346 349 351 354 352 353 354 355 356 356 356 357 361 362 360 359 358 358 358 359 363 359 356 356 360 362 360 357 360 358 353 347 347 350 346 347 355 350 351 354 348 346 343 334 331 327 330 336 340 340 343 343 346
333 332 333 334 334 336 337 337 338 340 342 342 343 345 347 347 347 346 347 348 346 352 350 349 351 346 344 343 344 344 344 345 349 355 351 355 350 352 352 352 354 355 356 358 358 363 365 361 359 357 357 356 362 362 358 359 357 355 353 352 349 351 356 358 350 347 348 347 345 345 346 349 346 346 345 340 332 329 327 333 334 338 341 342 347
334 333 333 334 336 337 338 339 339 340 342 344 343 345 347 347 346 346 346 347 346 351 350 350 352 352 346 344 344 344 350 347 348 348 347 350 348 350 351 351 352 354 355 357 357 361 363 361 360 360 359 358 364 357 356 356 357 355 354 354 354 353 355 356 351 350 351 350 349 346 343 342 341 344 343 342 340 333 329 330 333 334 335 338 342
334 334 334 334 336 338 339 338 339 340 341 342 343 344 346 346 345 346 346 346 349 350 349 349 350 349 347 345 345 344 346 345 346 346 346 347 347 348 349 350 351 353 354 357 358 359 361 363 361 360 361 364 365 356 354 355 357 356 358 356 358 354 354 354 353 354 354 352 353 348 346 345 340 341 339 340 339 334 333 332 336 340 340 338 338
334 334 333 334 335 337 338 338 338 339 340 341 342 344 345 346 345 345 346 345 349 350 349 350 350 349 348 346 344 345 346 343 347 345 346 347 347 347 348 350 350 353 354 355 356 358 360 360 364 361 362 360 361 357 356 357 357 357 355 356 355 357 356 357 353 352 352 349 350 351 349 349 347 345 343 342 339 338 335 334 337 338 337 337 340
333 334 334 334 334 335 336 337 337 338 339 340 342 343 344 345 344 344 346 345 348 350 349 349 349 348 348 349 344 344 347 342 346 346 347 347 347 347 348 348 350 351 352 353 355 356 358 358 359 358 357 360 360 358 358 357 356 355 354 357 357 354 357 356 353 353 353 351 350 352 351 350 348 347 347 343 343 343 341 338 340 341 336 336 340
331 334 335 334 334 336 336 337 337 338 339 340 342 344 344 345 344 343 346 346 347 350 349 348 349 349 348 349 348 347 348 344 345 347 348 347 348 347 348 348 349 350 352 352 355 357 358 358 360 359 358 359 360 359 359 356 356 354 355 355 357 355 355 356 354 357 355 355 354 351 350 349 348 348 347 345 342 340 339 339 338 337 341 339 341
333 335 334 335 334 336 336 337 337 338 339 341 342 344 344 345 344 344 345 346 346 350 349 348 348 349 349 349 350 349 349 346 347 347 348 347 349 349 349 350 350 350 350 353 355 355 356 356 356 357 356 357 361 361 362 359 361 357 359 357 358 357 356 357 356 358 358 356 354 351 352 352 350 349 347 345 343 342 341 340 338 334 335 338 341
334 332 330 335 335 336 336 336 336 338 338 341 343 344 344 345 345 344 345 347 345 351 349 349 349 350 349 349 350 352 354 351 351 353 350 349 350 349 351 351 352 352 352 353 354 355 353 354 356 356 356 357 361 361 360 360 360 358 357 358 357 364 357 357 357 358 358 357 354 352 350 350 351 351 351 349 348 347 345 343 342 339 335 333 335
337 334 334 336 338 336 336 336 336 338 338 341 343 344 345 346 346 344 345 349 346 350 350 349 349 349 350 350 350 351 352 350 350 350 351 352 352 350 350 352 353 353 353 356 353 354 353 353 353 355 356 357 361 361 361 359 358 360 359 357 357 358 358 356 357 357 357 356 354 353 352 350 350 353 353 352 350 350 350 346 346 343 342 336 331
336 337 339 342 340 339 337 337 337 337 338 342 343 345 346 347 347 345 345 349 347 348 350 350 349 350 350 351 350 351 351 350 350 352 352 351 351 352 351 351 351 354 355 355 355 353 354 360 353 355 358 358 361 362 361 359 358 357 357 357 358 357 356 356 358 358 356 355 356 355 353 350 352 352 350 351 352 350 349 350 347 348 345 340 336
338 338 337 339 344 342 340 337 338 338 339 343 345 346 346 348 348 347 345 350 350 349 350 351 350 351 352 352 351 351 351 351 350 351 351 350 351 352 352 352 352 353 356 353 353 352 353 355 354 354 358 359 361 361 361 359 358 357 357 356 357 356 355 354 356 358 358 356 354 353 352 351 351 351 353 353 352 352 350 349 347 350 348 346 343
336 338 340 342 344 346 343 338 337 336 338 342 345 346 346 348 349 348 347 350 351 350 350 350 351 350 351 352 352 352 352 351 350 349 348 348 348 349 352 352 352 352 353 353 352 351 353 354 355 354 356 359 360 361 361 359 358 358 358 357 357 358 357 356 356 358 360 358 354 352 352 352 353 353 353 353 352 352 352 349 349 348 347 349 349
335 337 341 342 344 347 343 340 340 339 341 343 345 346 346 348 349 349 347 349 351 351 350 350 352 350 350 350 351 352 351 351 350 349 348 348 348 350 348 351 353 352 352 351 351 351 352 355 354 355 355 356 358 359 360 360 358 358 359 359 358 357 356 355 356 356 358 357 355 354 354 356 356 355 354 353 350 349 349 349 350 348 346 347 345
335 338 342 344 345 344 346 340 341 342 342 343 346 347 347 348 350 350 349 349 351 352 352 351 352 351 349 350 351 351 352 351 350 349 348 347 347 347 348 349 350 351 351 352 351 353 353 353 353 354 354 355 357 358 359 359 358 358 358 361 359 357 356 356 354 354 356 359 355 352 352 352 354 353 351 352 351 351 349 349 347 350 346 345 346
337 337 341 345 343 340 342 340 338 341 341 343 345 345 346 347 349 350 350 350 352 353 353 352 351 351 350 351 351 351 351 351 350 350 349 348 348 347 348 348 349 350 351 352 352 351 352 353 352 353 353 353 354 357 358 358 358 358 357 359 359 356 354 353 351 353 357 354 351 350 351 352 353 349 350 351 351 349 351 350 351 350 346 346 348
341 340 342 342 341 342 342 339 339 339 338 338 343 344 345 346 347 348 349 349 350 350 352 351 351 351 351 350 350 351 351 351 350 350 349 348 345 344 346 347 349 350 349 351 352 351 351 353 353 353 353 353 353 355 356 357 356 357 357 357 353 351 351 350 350 350 351 352 349 348 349 353 351 347 347 347 347 348 347 348 349 349 349 349 349
339 340 341 340 341 343 341 341 341 341 339 341 343 343 345 345 346 346 345 348 349 347 348 348 347 345 345 346 350 351 350 351 350 350 349 346 345 345 348 345 343 343 345 346 350 351 350 352 353 353 354 354 355 355 354 355 356 357 357 356 352 350 349 349 349 349 357 353 350 348 348 350 348 345 346 346 346 346 348 349 349 349 350 349 349
336 337 339 339 341 343 342 342 343 342 340 340 342 342 343 344 345 346 345 346 347 347 347 349 349 348 347 346 346 348 350 350 350 350 349 351 348 348 349 348 345 346 348 346 344 348 351 351 352 353 354 355 355 354 353 353 353 353 354 353 353 351 350 349 349 349 350 353 350 348 348 349 347 345 345 346 346 347 348 350 352 350 350 349 346
336 337 338 339 340 340 341 343 344 343 343 342 343 344 344 344 344 344 345 345 346 348 347 348 349 348 349 350 350 349 350 351 352 351 354 354 351 349 351 352 351 348 346 346 348 350 351 350 351 352 353 354 354 355 354 352 352 351 351 351 350 349 348 349 349 349 352 353 350 349 348 349 348 347 346 346 346 347 352 351 352 352 351 349 347
338 337 336 336 336 337 339 340 340 341 342 343 343 342 341 342 342 344 346 346 346 348 347 346 346 347 349 351 350 350 350 348 352 353 356 356 359 358 356 356 355 352 352 350 349 350 351 352 350 351 356 355 353 353 353 352 351 350 350 349 348 348 348 347 346 349 352 353 351 350 349 349 348 347 346 346 347 345 346 348 349 347 348 347 346
337 336 337 337 336 337 337 339 339 340 340 342 341 341 342 342 342 344 346 346 347 347 347 346 346 346 347 349 349 348 351 352 356 356 356 357 358 357 357 357 357 356 357 354 354 350 350 352 353 353 354 354 353 352 353 355 352 350 351 350 349 349 348 346 346 348 349 352 350 350 351 351 353 357 357 355 354 355 351 349 350 347 346 344 344
336 334 333 334 334 336 337 337 338 339 340 341 341 341 342 343 342 345 347 348 345 346 347 346 344 343 347 352 354 358 356 356 355 355 355 356 357 357 358 357 356 356 355 356 353 352 352 352 352 349 346 343 341 343 346 347 351 356 353 354 353 352 349 346 345 345 347 351 351 350 353 359 359 360 361 360 360 360 361 358 354 349 348 347 346
333 334 333 333 334 334 334 333 333 335 337 339 340 341 342 344 346 348 348 350 347 345 349 350 349 349 348 350 351 355 356 355 355 354 353 353 353 355 354 353 354 354 354 356 352 350 351 352 348 341 337 335 334 335 336 335 336 344 353 351 353 351 348 348 349 347 346 351 350 350 348 356 358 360 356 358 356 356 357 358 358 358 357 353 348
331 331 331 333 334 333 333 333 333 335 337 338 339 340 341 343 344 345 350 352 349 347 346 344 345 347 347 346 349 350 350 351 353 353 353 352 353 352 351 352 352 353 353 353 352 351 351 345 338 335 331 328 327 329 326 330 334 335 343 349 349 353 351 350 350 350 350 351 349 350 350 351 349 352 350 343 347 351 350 351 354 356 356 355 351
332 332 331 333 334 334 334 334 334 335 336 339 340 338 338 340 342 344 347 348 343 342 342 343 344 343 343 344 344 344 344 344 346 349 350 351 350 348 347 348 349 352 350 348 348 350 344 337 333 329 326 325 324 325 324 326 329 330 333 346 345 350 349 349 350 349 348 344 344 342 347 349 345 345 340 333 333 334 340 347 351 353 354 352 343
333 333 333 334 335 335 336 336 335 336 338 338 342 340 339 342 342 342 343 345 343 341 342 343 344 343 343 344 344 344 345 345 344 345 346 346 345 343 344 347 347 348 346 347 347 340 336 332 328 325 323 323 323 323 322 324 325 328 331 338 342 348 351 348 347 344 343 345 345 345 345 337 332 331 331 330 329 328 332 337 341 343 345 349 343
332 333 333 334 334 335 336 336 338 340 340 338 338 339 341 342 342 342 342 341 342 342 342 343 343 343 343 343 342 343 344 343 342 342 343 343 342 341 343 347 348 348 347 346 344 339 334 330 327 324 323 320 319 319 320 323 324 328 333 345 343 348 346 344 343 343 343 343 344 341 335 330 327 328 331 331 329 331 332 336 336 335 337 340 335
331 331 332 333 334 334 335 336 339 338 339 340 341 343 343 342 343 341 341 340 339 338 339 341 340 342 342 343 342 341 340 341 341 341 342 342 343 343 344 345 345 344 344 344 342 335 329 326 325 324 322 320 320 316 318 321 323 328 340 350 348 344 340 340 342 343 343 338 330 328 328 329 328 327 329 328 332 334 329 329 330 331 335 335 332
332 334 334 335 335 336 337 337 337 338 338 339 340 342 341 341 341 340 340 340 340 339 339 340 340 341 343 342 342 341 341 340 340 340 340 341 343 344 344 345 341 339 338 336 333 330 330 327 325 324 321 319 319 316 314 316 319 323 335 340 342 342 342 341 342 342 339 333 332 331 330 330 328 327 326 321 326 332 326 328 329 331 332 331 329
335 336 337 337 337 338 339 339 339 339 339 339 339 339 339 339 339 339 339 339 339 339 340 340 340 342 342 342 342 341 340 340 339 338 338 337 338 339 339 339 335 333 331 331 330 329 329 329 327 324 323 319 317 316 312 312 315 321 333 336 337 336 337 341 341 339 338 339 340 340 336 329 328 327 321 321 325 330 326 329 331 330 329 328 327
336 336 336 337 338 339 341 340 339 338 339 340 339 338 338 338 338 338 338 337 337 338 338 339 340 341 341 340 340 340 339 338 337 336 335 334 334 334 335 334 332 331 331 331 331 328 327 328 328 326 325 318 318 317 312 311 313 317 327 329 330 328 327 329 335 337 337 337 337 338 336 331 327 323 316 317 321 330 326 328 330 328 327 327 326
335 336 335 336 338 337 336 337 338 339 341 341 341 341 340 339 339 340 339 338 338 339 340 340 341 341 341 341 340 340 338 337 335 335 335 334 335 333 332 331 330 329 328 327 327 325 324 324 325 324 322 320 318 318 317 310 311 313 318 326 324 324 324 324 326 327 325 327 331 334 331 322 319 316 313 312 315 321 327 328 329 327 326 326 326
333 334 338 334 334 334 334 335 336 338 339 339 339 338 338 339 339 338 338 339 340 340 340 340 340 340 340 339 339 338 337 336 336 334 335 334 333 331 330 328 326 326 325 324 324 324 323 323 323 323 322 322 322 319 319 311 310 311 315 320 320 321 321 320 321 324 322 324 326 328 331 327 316 314 311 310 311 317 329 329 326 325 326 326 326
336 337 334 332 333 333 334 335 335 334 335 334 334 334 335 337 337 337 339 341 341 341 340 339 338 339 339 338 338 337 337 336 336 334 332 331 331 330 328 326 325 324 323 322 323 324 321 321 321 322 322 321 327 329 323 318 313 311 311 317 322 323 325 323 323 323 324 325 325 327 330 327 314 313 310 309 311 318 325 330 324 318 321 327 337
327 327 330 327 325 325 325 326 327 327 328 328 327 326 326 326 327 332 337 339 339 338 338 337 337 337 337 336 336 337 336 336 335 333 331 329 330 329 328 328 325 324 322 321 321 321 321 320 321 321 322 323 323 327 328 326 319 313 312 314 316 321 321 326 322 324 324 325 327 327 330 326 314 312 312 315 317 320 326 321 317 319 321 326 335
326 326 326 327 324 324 323 324 325 326 326 326 325 324 324 322 322 325 328 330 330 333 336 336 337 335 335 336 336 336 335 334 334 333 332 330 329 329 330 329 327 326 323 321 320 321 321 321 322 322 323 322 320 319 325 326 324 316 313 312 314 315 318 322 325 323 326 326 325 326 325 313 311 309 311 314 316 322 321 313 317 321 325 330 329
324 325 327 325 323 322 322 323 324 325 326 325 324 323 324 322 323 322 321 321 321 321 320 321 325 330 328 324 323 324 328 332 333 333 332 332 331 331 329 328 329 327 324 323 322 324 322 322 319 318 317 317 317 316 316 322 324 323 317 314 316 318 318 318 327 326 328 326 320 314 312 313 314 314 316 319 320 321 317 318 319 323 332 325 325
324 323 324 323 323 322 321 322 322 324 324 325 323 323 323 322 325 327 321 318 318 318 318 318 320 320 320 321 319 319 319 320 320 320 321 320 323 323 321 320 322 325 326 326 325 323 320 319 316 316 316 315 315 314 314 314 319 320 319 319 318 320 327 327 327 324 325 320 316 315 317 318 321 324 328 328 327 326 324 325 325 328 323 324 323
321 323 324 322 322 321 321 321 321 323 324 325 326 327 327 328 328 328 328 325 321 319 319 317 317 318 318 317 316 315 315 316 316 317 317 317 317 316 317 319 318 319 321 323 325 324 321 319 317 316 315 315 314 312 312 312 311 311 312 314 316 317 323 324 323 323 327 328 327 327 322 320 321 326 328 329 327 327 325 322 320 320 321 322 324
321 321 321 320 320 320 321 322 321 323 325 326 327 327 328 328 329 328 324 324 325 319 314 313 316 318 318 318 319 323 316 312 312 313 313 314 314 314 312 312 312 314 315 316 319 319 320 319 315 315 315 315 314 313 311 309 310 309 309 310 313 314 312 314 317 318 323 329 326 329 325 327 325 323 322 321 321 322 323 321 318 318 318 320 322
319 320 321 319 320 321 321 322 321 322 323 323 324 325 326 326 327 325 323 324 325 328 320 315 314 315 317 318 314 313 312 310 309 309 307 307 309 312 312 310 309 305 311 314 314 315 317 315 315 314 313 314 314 313 313 305 307 303 303 305 309 308 308 314 318 314 322 322 322 321 320 319 319 319 319 318 319 318 317 316 315 314 314 314 315
319 320 319 320 321 321 321 321 319 321 321 321 321 322 323 324 325 325 324 323 324 321 318 316 314 313 314 315 314 312 312 312 309 309 308 308 308 300 302 311 311 312 306 306 310 312 314 313 311 312 313 312 312 313 306 298 295 294 296 297 298 299 300 309 315 316 321 317 317 316 316 316 316 315 315 315 315 315 315 313 312 314 313 312 313
320 319 320 320 320 322 320 320 319 321 321 321 320 320 321 322 323 323 324 322 321 321 319 318 319 317 318 317 314 312 311 309 309 309 309 310 307 307 297 297 304 306 300 297 299 303 307 312 319 311 309 305 305 300 295 293 294 295 295 296 298 300 301 305 310 316 316 314 314 314 314 315 315 314 314 313 313 313 314 313 311 310 310 312 312
Wind_Speed
9 11 11 14 14 12 11 10 10 10 10 8 8 7 7 8 8 7 5 7 7 6 6 6 6 5 3 6 6 6 5 5 5 5 5 5 4 4 3 4 3 2 2 2 3 2 1 1 2 2 0 2 1 1 0 2 2 2 2 2 4 5 3 4 6 3 5 3 4 4 3 2 0 3 6 4 5 6 6 6 6 5 7 6 7
11 8 11 12 10 14 12 10 10 12 10 9 10 8 7 8 8 7 5 7 7 7 6 6 5 6 5 6 5 5 5 5 6 5 6 5 4 4 4 3 3 3 2 2 2 2 2 1 2 2 1 1 1 1 1 2 3 3 3 3 2 3 1 2 5 3 3 1 1 3 5 5 2 1 1 3 5 6 8 8 6 7 6 7 6
11 10 9 10 13 15 12 10 10 12 11 11 9 8 8 7 7 7 6 7 7 7 6 5 4 5 4 4 5 3 4 5 5 6 6 5 5 4 4 4 3 3 3 2 2 2 2 1 2 2 2 1 1 1 2 3 3 3 3 2 2 2 1 1 3 2 0 1 0 2 1 2 4 4 3 2 3 5 3 6 6 3 6 8 8
12 11 10 11 13 12 10 10 11 9 9 9 9 9 8 6 6 7 7 6 7 8 7 6 6 6 6 6 5 5 4 5 5 5 4 4 4 4 3 4 3 3 3 2 1 1 1 2 1 1 2 1 2 1 1 2 2 3 2 1 1 2 3 2 1 2 0 2 1 0 0 0 0 1 2 5 1 4 3 3 6 8 11 11 6
12 11 11 11 12 11 10 11 11 10 10 10 10 9 7 8 7 7 6 5 5 7 8 6 4 6 3 4 4 5 4 5 5 3 5 5 4 3 5 4 4 3 3 3 3 3 2 2 2 1 1 1 1 1 1 1 1 1 1 2 2 1 2 1 2 3 3 1 2 1 1 2 1 2 1 5 1 1 3 3 1 4 6 6 7
15 13 13 12 12 9 10 12 11 10 10 10 10 9 8 7 6 6 5 4 5 5 6 4 4 6 4 6 6 5 5 6 6 7 5 5 5 4 3 4 4 3 4 3 3 3 3 2 2 2 1 1 1 2 1 0 1 0 2 2 2 0 2 3 3 3 2 4 4 2 3 1 1 2 2 2 5 1 3 1 1 2 2 1 4
11 12 12 13 12 11 12 12 12 11 10 9 9 9 10 8 7 7 6 5 5 5 4 4 4 4 5 5 5 6 6 3 4 5 6 5 4 5 5 4 3 4 3 3 3 3 3 2 2 2 1 0 0 1 1 2 1 1 2 2 2 1 1 2 2 3 4 3 3 2 2 1 1 1 1 0 3 5 3 3 3 3 2 1 1
11 14 14 13 13 14 14 13 12 11 11 10 9 9 10 9 8 7 6 5 5 4 3 4 5 4 5 4 6 6 6 6 4 5 4 4 5 5 4 4 3 3 4 3 3 3 3 3 2 2 1 1 0 2 3 2 0 1 2 1 2 1 1 2 0 2 3 2 1 3 2 1 2 1 1 1 2 1 6 5 2 3 4 2 2
13 13 15 15 13 13 13 13 11 12 12 11 10 9 9 10 9 7 7 6 5 4 5 4 5 6 6 6 5 5 6 6 5 3 5 4 5 4 4 4 3 3 4 4 3 3 3 3 2 1 1 1 1 2 2 2 3 3 2 2 1 0 0 1 1 0 1 0 2 2 3 3 3 2 2 2 1 0 3 1 5 5 3 2 1
12 14 15 14 14 14 14 13 13 11 11 11 10 10 9 9 9 8 7 6 5 4 5 5 5 5 7 7 7 6 5 5 5 5 4 4 5 5 4 5 5 4 3 3 4 3 3 3 3 3 3 2 2 3 2 3 2 2 2 2 1 1 1 0 1 1 1 1 0 1 2 2 3 2 2 2 1 0 1 4 3 3 5 6 5
11 11 14 14 13 14 14 14 13 12 11 11 10 11 10 10 9 9 8 6 5 5 5 6 4 4 5 7 7 7 5 6 6 5 4 3 5 5 5 5 4 5 4 4 4 4 4 3 4 4 3 2 2 3 3 4 2 2 2 2 1 2 2 0 1 1 1 1 1 0 0 1 1 0 2 2 0 1 2 3 3 2 3 5 5
12 11 14 14 13 14 14 14 13 13 12 12 11 11 11 10 10 9 7 6 5 5 5 5 5 4 3 5 5 6 5 5 7 7 7 7 6 6 5 4 4 4 4 4 4 4 4 4 4 4 4 3 4 4 3 3 3 3 3 3 3 2 1 0 0 2 2 2 2 1 2 2 2 3 3 2 2 3 2 3 4 3 3 2 5
13 11 13 13 14 14 14 14 13 12 12 12 13 12 11 11 11 11 9 7 7 6 6 5 5 4 4 4 4 4 4 5 5 6 6 6 5 5 4 5 5 4 4 4 5 5 4 4 4 5 4 4 4 4 3 3 3 4 4 4 3 3 3 3 2 2 2 2 3 2 1 2 3 4 3 3 3 2 2 2 3 2 3 3 3
7 13 12 13 14 14 15 14 13 13 13 14 14 13 12 11 11 12 9 8 7 7 7 6 5 5 4 4 4 4 4 4 4 6 6 6 5 5 5 5 5 5 5 5 6 5 4 5 5 5 5 4 4 5 4 4 3 4 3 4 4 4 2 3 3 2 2 3 2 3 3 4 4 4 4 3 3 2 2 3 3 2 1 3 3
2 7 4 14 14 14 14 14 13 13 13 13 13 13 12 12 12 12 9 8 8 8 7 7 6 5 4 4 4 3 4 4 5 5 6 5 5 5 5 5 5 6 6 6 5 6 6 5 5 5 5 4 4 4 4 4 4 3 3 4 3 3 3 3 3 3 4 4 3 2 4 3 5 5 3 4 3 4 3 3 2 4 4 2 2
12 5 9 11 10 13 14 12 13 13 13 13 14 13 13 13 13 14 13 11 10 9 8 8 7 6 5 5 5 4 3 4 5 4 5 6 6 6 6 5 5 6 6 5 6 6 6 6 6 6 5 5 4 4 4 4 3 3 3 3 4 2 3 3 5 4 4 4 4 3 2 4 4 4 3 4 4 4 4 3 2 3 4 5 3
2 4 5 4 9 11 14 13 12 14 13 14 14 14 15 13 13 13 12 10 10 10 9 8 7 6 7 7 6 4 5 5 6 5 6 6 5 6 6 6 6 5 6 5 5 5 6 6 6 6 5 5 4 4 5 4 3 4 4 4 4 3 3 4 4 4 4 4 4 4 4 4 4 3 2 3 3 2 1 2 2 4 4 3 2
5 4 1 2 1 9 10 12 13 15 15 15 16 15 14 14 15 14 12 12 11 10 10 9 9 7 7 7 7 6 6 5 4 6 5 6 6 6 5 5 6 6 7 6 6 6 6 7 7 7 6 5 6 5 5 5 4 5 5 4 4 3 3 3 3 3 4 4 4 3 3 4 4 3 4 3 3 1 1 2 4 5 4 2 3
6 2 1 2 2 3 8 10 12 15 15 16 15 15 12 13 14 15 16 14 13 11 10 9 9 8 7 8 8 7 6 5 5 4 4 5 6 6 6 6 6 6 7 7 6 6 7 7 7 7 6 7 6 6 6 6 5 5 4 5 4 3 4 4 4 3 4 3 3 4 4 4 5 5 4 3 3 0 3 4 5 5 5 4 5
8 5 3 1 1 2 2 8 10 15 14 15 16 13 15 14 13 13 13 13 12 12 11 11 10 9 8 6 7 6 6 6 6 5 5 5 5 6 6 6 8 6 7 7 6 6 6 7 7 8 7 6 7 7 6 6 6 6 5 5 5 4 5 5 5 4 3 4 3 4 4 4 4 4 4 4 3 1 1 3 5 5 4 3 4
8 7 3 1 3 3 3 2 6 3 10 11 12 13 14 12 14 14 14 13 13 12 11 10 9 10 9 8 8 7 8 7 7 6 7 6 7 6 6 7 6 6 7 6 6 6 7 7 8 7 7 7 7 7 6 6 6 6 6 6 6 5 5 5 4 5 3 4 4 4 4 3 3 4 4 2 2 3 2 1 2 2 3 3 4
8 6 4 3 2 4 1 3 7 3 9 14 12 12 12 11 10 10 10 11 12 12 11 9 8 8 9 8 8 7 7 7 8 8 8 8 8 7 8 7 7 7 6 7 5 2 3 6 8 8 7 7 7 7 8 6 6 6 6 5 6 5 4 3 2 3 3 2 3 3 3 4 4 2 2 0 1 1 1 2 3 2 3 3 4
7 7 3 2 4 4 3 6 3 8 8 2 10 11 10 9 10 10 12 12 10 10 8 7 7 6 7 7 8 8 8 8 9 8 8 9 8 9 9 8 8 8 6 7 7 8 7 7 7 7 7 7 6 7 7 6 6 7 7 6 5 5 5 4 3 2 1 1 2 1 1 2 2 2 3 2 2 3 3 3 3 3 4 5 4
6 5 4 3 4 5 7 8 5 6 11 3 8 4 8 9 8 7 6 4 5 4 4 3 2 1 5 7 7 9 10 10 10 9 9 7 6 6 6 9 9 9 8 7 9 9 9 8 8 8 8 7 7 6 6 7 7 7 6 6 5 5 5 4 3 3 3 3 3 3 4 3 3 4 4 3 3 4 4 4 5 5 4 4 4
7 7 5 5 5 5 8 6 6 8 10 11 7 3 7 8 7 8 9 5 2 1 5 6 8 7 6 10 7 9 9 10 10 9 9 5 4 3 3 3 2 3 2 3 4 6 9 8 9 9 8 8 8 7 6 5 5 6 7 6 5 4 5 4 4 4 4 4 4 4 3 2 2 3 3 4 4 3 4 4 5 5 3 3 2
7 7 6 5 4 4 7 8 6 7 10 9 6 4 4 4 6 8 9 8 3 1 4 4 4 7 8 6 8 10 10 11 10 8 7 5 3 2 2 2 3 2 2 2 3 4 4 6 8 9 9 9 8 7 6 6 6 5 5 5 5 5 5 5 4 4 4 4 3 4 5 5 5 5 5 4 4 5 4 4 5 3 3 2 2
5 6 6 5 5 6 4 6 9 6 4 4 4 6 7 7 5 3 3 5 7 5 3 7 6 6 7 9 8 4 10 5 7 6 4 3 3 2 2 2 2 3 3 2 2 2 1 5 6 5 6 7 7 7 7 7 6 6 6 6 5 4 3 4 3 3 4 4 4 5 5 6 6 6 6 5 3 3 3 4 3 3 2 2 2
6 6 6 7 6 7 7 4 7 7 7 6 4 3 4 9 11 9 5 5 4 5 6 6 7 8 7 8 9 9 5 9 5 3 3 3 3 3 3 2 2 3 2 2 1 1 0 1 2 3 0 1 1 1 1 4 5 6 6 5 4 4 1 7 7 5 6 5 5 5 6 6 6 5 4 3 2 2 2 3 3 2 2 2 3
8 7 7 8 6 5 6 2 6 8 8 7 5 5 6 6 2 7 11 11 7 6 7 6 7 8 7 7 7 9 10 11 7 5 4 4 4 4 4 3 2 2 1 0 1 3 3 4 4 5 5 5 5 4 3 2 1 2 3 4 3 3 6 6 7 5 3 2 3 4 4 4 4 6 7 5 5 4 2 3 3 2 3 3 4
7 8 7 8 7 7 6 3 4 5 5 6 7 3 1 5 6 3 1 4 4 5 6 6 6 7 6 5 6 7 8 7 5 5 5 4 4 3 3 3 3 3 1 1 1 2 3 5 6 5 5 5 4 3 5 8 7 2 1 2 3 5 6 4 2 4 6 3 2 2 3 8 8 8 7 5 4 4 5 3 2 2 3 3 3
7 8 7 6 5 6 6 7 5 3 5 7 7 4 1 0 0 1 2 3 3 2 2 1 4 5 5 5 5 5 5 5 5 4 4 4 3 2 2 1 1 1 1 1 2 3 4 4 5 5 5 4 4 3 6 6 7 8 4 2 2 4 5 5 6 6 4 3 4 2 1 3 3 5 5 6 7 7 8 8 9 7 5 3 1
6 8 8 6 4 3 4 5 3 2 3 5 7 7 5 3 4 2 1 2 5 4 5 7 8 8 9 8 6 5 5 4 4 4 5 5 4 3 3 2 2 1 1 1 2 4 5 6 5 6 6 4 3 6 5 4 5 6 6 1 0 3 4 5 5 5 4 2 1 0 1 3 3 2 5 6 7 9 9 9 8 8 6 4 3
8 8 7 6 6 5 3 2 1 1 3 2 3 6 6 4 5 3 2 5 7 8 7 7 5 6 4 3 6 8 8 7 7 4 4 4 4 3 2 2 2 1 1 1 2 5 6 5 6 6 4 3 2 6 4 3 2 9 2 3 4 3 4 4 3 0 3 6 7 7 6 5 6 12 8 7 6 6 9 10 9 9 9 8 4
5 7 7 5 5 4 5 8 5 1 3 3 3 2 3 5 7 5 6 3 7 6 5 6 6 6 4 2 5 8 7 5 1 2 4 5 4 2 2 2 2 2 2 2 4 5 5 5 5 5 5 3 4 8 8 5 2 2 4 5 3 1 3 3 5 7 6 4 2 3 5 6 6 7 7 7 5 5 5 5 5 5 5 9 11
6 5 5 5 5 5 4 5 6 6 5 6 3 3 2 5 7 7 3 1 3 7 5 5 5 5 4 1 1 3 4 4 4 4 5 5 4 4 2 2 2 2 2 3 4 6 5 6 5 5 5 5 4 9 7 5 3 3 6 6 4 6 5 6 6 6 5 5 6 7 5 6 6 6 5 8 6 5 5 4 5 5 5 5 6
4 5 4 5 4 4 4 3 2 5 5 5 6 6 5 6 7 8 5 1 1 3 5 4 5 4 4 3 4 4 4 4 4 4 4 4 4 3 4 3 3 3 4 5 7 7 7 6 6 5 5 4 4 8 7 7 7 6 4 5 6 6 6 5 5 5 5 7 8 7 6 4 3 4 8 10 8 4 4 5 5 5 5 5 6
4 5 4 3 3 3 3 3 4 5 6 5 5 7 8 7 7 6 6 5 5 7 7 6 5 4 5 5 5 5 4 5 5 5 5 4 3 3 3 3 5 5 7 8 7 7 6 7 7 6 5 5 5 9 9 9 9 9 6 5 6 6 6 6 6 6 7 8 7 5 5 4 4 4 6 7 7 6 4 5 4 4 4 5 7
6 5 4 4 3 3 3 4 5 6 5 6 6 7 8 7 6 6 6 5 7 8 7 7 6 5 5 5 5 5 5 5 5 6 5 6 6 6 6 5 7 7 8 7 7 8 7 7 7 7 6 6 7 9 10 10 10 10 7 6 6 7 6 6 6 6 5 5 7 13 8 5 5 4 5 6 7 4 5 5 5 4 5 6 7
7 6 6 5 4 4 4 4 5 6 5 5 7 8 9 7 7 6 6 7 7 7 7 8 8 7 6 6 6 6 7 7 6 6 6 7 7 6 6 6 7 7 7 6 7 8 7 6 6 6 10 8 6 7 11 11 12 11 8 6 6 7 8 6 5 5 5 5 5 8 11 8 5 4 6 6 7 6 5 5 4 4 6 6 5
7 6 5 5 5 7 7 6 7 6 6 6 6 8 8 8 8 7 7 7 6 5 6 7 7 7 7 7 6 7 7 7 8 7 7 6 5 6 6 7 6 6 7 7 7 7 8 6 5 5 6 6 4 4 6 12 13 13 10 7 5 7 7 6 5 5 5 4 3 2 4 5 6 5 6 7 8 8 5 5 4 5 5 6 5
10 9 8 5 4 6 7 7 5 6 7 6 7 8 8 7 7 7 7 6 5 5 5 6 7 7 7 7 6 7 7 6 6 6 6 6 5 6 6 6 6 5 6 7 8 7 6 6 5 4 4 3 1 2 6 11 12 12 11 8 6 6 4 4 5 4 4 3 3 3 0 5 7 7 6 6 7 6 5 5 6 5 3 3 3
8 10 7 5 5 7 9 8 6 6 7 6 8 9 7 6 6 7 6 5 5 5 5 6 7 7 7 7 6 6 6 6 5 5 6 6 5 6 6 5 5 5 7 7 6 6 6 5 5 4 4 3 5 9 5 10 11 11 10 9 6 4 3 4 6 5 4 3 2 2 2 7 8 7 6 7 9 11 12 7 7 9 8 6 6
9 9 7 6 5 6 8 8 7 7 6 6 9 9 7 5 6 5 4 4 4 5 5 6 6 7 6 6 6 6 6 5 6 6 6 6 5 6 6 5 6 6 7 6 5 4 4 4 4 5 4 5 6 7 12 8 11 12 11 9 7 4 4 4 5 5 4 4 3 4 6 11 14 16 16 15 15 16 11 10 16 15 14 13 9
10 10 9 8 6 6 8 7 7 7 6 5 8 8 6 7 5 3 4 4 4 4 4 5 5 6 6 6 6 6 6 6 6 6 6 7 6 5 4 4 4 5 5 5 4 4 4 5 5 5 6 6 6 6 9 12 9 12 12 12 10 7 5 3 3 4 4 4 5 6 7 13 17 17 17 17 16 14 11 15 15 15 14 11 7
10 8 8 7 8 8 7 7 6 7 5 5 5 8 6 5 1 3 5 5 5 5 5 5 5 5 7 6 6 6 6 5 5 5 5 5 5 4 5 3 4 4 4 4 4 3 5 5 6 6 6 6 6 6 6 9 12 11 11 12 11 10 9 6 5 5 4 4 6 10 13 15 14 15 15 14 13 15 16 15 15 14 13 7 7
8 6 6 5 6 6 7 7 5 5 5 4 5 6 6 2 2 4 4 5 6 8 8 7 7 6 6 8 8 8 8 8 7 6 6 5 5 5 5 4 4 4 4 5 5 5 5 5 5 5 5 5 5 5 6 6 7 8 8 10 9 9 9 9 8 6 8 12 13 13 14 14 13 11 10 9 8 10 15 16 16 14 7 7 6
9 6 6 7 6 7 6 5 5 4 5 5 6 6 5 5 6 4 5 6 7 7 7 7 8 7 7 7 8 7 7 7 6 6 6 6 5 6 6 5 5 5 5 5 5 5 5 5 5 5 5 5 5 5 5 5 6 6 6 6 6 6 8 8 8 6 7 8 11 11 11 12 12 15 14 12 11 11 10 9 8 8 8 8 7
8 6 6 5 5 4 5 4 4 3 5 6 6 6 7 6 6 5 6 7 6 7 7 7 7 7 6 7 7 10 9 7 6 6 6 6 6 5 6 5 5 6 7 6 5 5 4 5 5 4 5 5 5 5 5 6 6 7 6 6 5 6 7 5 6 5 6 7 7 8 9 7 7 8 8 7 8 8 8 7 7 7 7 7 9
9 7 7 7 5 6 6 6 5 4 5 6 6 6 6 6 5 5 6 7 7 6 7 7 6 7 6 6 6 6 6 7 7 7 6 5 5 5 5 4 1 0 2 6 7 4 4 3 4 4 5 6 5 5 3 2 3 5 4 6 7 5 4 6 4 3 7 7 8 8 7 8 8 8 7 7 7 7 7 7 8 6 6 6 6
8 8 8 7 7 8 7 7 4 4 6 6 6 5 5 4 4 4 6 8 6 7 7 6 5 6 6 6 6 6 6 6 7 7 7 7 9 8 6 4 3 6 5 3 4 4 5 5 6 3 2 4 5 2 1 3 4 5 5 5 4 4 3 2 8 13 9 8 8 8 7 7 7 7 7 7 6 6 6 6 6 6 6 6 6
9 9 8 8 6 7 7 6 5 5 6 6 5 5 5 4 5 4 6 7 7 7 6 6 5 5 6 6 6 6 5 6 6 6 6 7 5 7 9 10 8 5 5 7 8 9 6 4 6 5 3 6 6 4 2 2 3 4 6 8 10 12 12 9 10 12 10 8 7 8 7 7 6 6 6 6 5 5 5 5 5 5 5 6 5
Wind_Direction
156 147 143 147 149 149 153 157 153 155 163 169 173 175 166 161 160 170 165 153 159 160 164 158 158 161 164 185 194 199 204 208 217 224 211 196 175 156 153 149 158 152 139 149 150 128 136 102 83 71 34 84 77 97 114 341 351 7 14 4 28 29 336 346 7 39 48 2 353 4 335 349 320 147 183 183 197 210 203 204 217 209 219 221 223
142 146 146 147 142 146 154 155 156 160 169 165 171 175 169 162 163 168 157 160 167 172 173 170 167 177 169 185 185 183 188 191 208 207 194 181 168 157 152 158 165 172 171 174 132 137 141 126 129 160 151 94 92 359 13 358 9 10 25 15 15 53 347 354 342 31 26 100 2 326 343 331 332 22 109 196 210 197 203 204 200 211 224 226 236
150 153 152 146 141 147 154 154 164 165 162 159 163 163 165 162 162 161 158 160 172 177 169 181 184 179 179 178 187 188 202 194 190 187 175 168 173 165 158 160 168 183 182 167 140 169 155 135 178 182 168 175 75 14 12 355 359 8 18 79 345 360 342 319 355 41 155 103 11 76 339 3 327 4 335 331 346 294 205 201 174 180 239 225 215
155 159 155 147 146 148 146 151 159 160 153 151 157 159 160 161 164 159 159 156 164 177 178 188 186 184 196 187 177 172 172 172 163 160 154 156 176 173 164 163 174 187 194 188 165 183 163 160 185 173 162 158 148 149 338 322 352 358 30 48 120 25 2 316 309 24 107 127 4 35 248 95 6 313 327 296 303 305 34 142 180 207 221 226 183
158 161 156 150 151 153 150 151 154 156 156 157 157 160 162 167 168 163 163 169 169 176 181 195 189 163 145 117 121 98 85 108 124 147 165 174 163 175 184 172 178 191 196 189 180 181 164 152 171 156 188 187 159 147 258 262 337 278 136 92 88 137 9 322 310 1 358 108 143 72 1 20 230 244 306 286 25 305 341 4 220 233 251 236 189
160 162 161 157 156 148 148 151 156 156 160 163 160 156 154 166 166 167 169 176 185 194 192 181 186 142 133 133 130 128 130 133 154 165 174 175 182 190 181 182 184 190 194 188 187 171 165 177 200 175 172 154 212 226 238 346 299 238 171 147 101 93 141 44 346 328 17 45 99 161 166 171 272 280 71 315 318 263 308 295 126 317 337 97 179
160 157 159 158 157 150 156 158 159 159 165 163 162 153 154 163 169 173 179 187 196 209 190 177 166 136 156 156 151 155 154 192 172 172 168 182 167 180 192 196 186 186 193 185 184 182 171 184 195 207 176 247 236 194 298 274 229 201 130 116 140 132 89 75 28 295 344 14 40 34 60 91 158 59 301 357 352 317 330 338 340 340 4 54 252
164 161 165 164 161 159 163 165 164 162 161 163 164 158 158 165 171 176 185 192 202 199 179 180 167 156 161 165 155 156 167 177 185 182 174 166 172 186 187 204 195 189 186 189 178 187 180 205 193 205 205 251 295 205 238 244 189 146 122 147 123 103 134 124 342 352 92 297 357 35 19 56 23 55 120 151 178 304 317 326 300 326 344 32 310
169 163 168 167 166 163 164 167 168 161 162 165 167 166 161 165 170 175 189 193 197 179 169 178 156 162 169 165 163 174 169 176 184 181 170 174 177 192 190 209 209 206 192 187 185 180 200 198 197 207 224 257 261 264 230 205 167 148 130 120 150 214 181 196 110 300 102 354 8 349 13 18 1 56 64 79 118 120 285 297 310 324 348 316 328
177 167 169 169 166 166 166 165 167 168 167 165 160 163 165 165 172 173 192 193 183 175 165 176 153 145 159 166 167 174 177 173 162 178 181 177 181 194 196 203 210 218 213 203 187 190 194 193 193 203 223 223 246 225 212 220 164 165 170 168 168 264 349 147 215 265 240 284 69 152 43 344 12 8 23 43 16 113 235 291 297 323 331 301 321
179 168 171 169 167 165 163 168 171 168 168 167 162 167 168 171 172 177 190 182 177 173 167 176 162 154 157 161 168 178 180 165 174 189 180 177 190 196 194 205 199 206 206 212 203 197 199 195 200 209 215 208 232 215 211 206 198 188 197 188 184 190 232 273 11 14 20 335 297 185 189 178 180 214 275 298 223 277 336 303 305 278 266 312 296
181 168 171 166 165 167 167 169 171 170 169 167 167 168 171 172 172 173 184 182 177 174 173 180 173 162 163 160 175 185 181 165 177 187 185 188 191 192 203 198 209 205 205 204 213 209 198 207 212 216 219 217 223 220 218 205 196 186 190 194 202 198 207 219 34 335 327 329 312 255 232 202 204 211 235 213 194 230 187 267 287 302 330 254 272
178 176 169 169 169 169 172 173 172 170 174 166 169 170 172 173 174 172 184 182 180 175 179 185 182 183 176 176 193 183 190 165 181 175 185 186 189 187 186 203 203 205 214 209 219 212 203 207 220 221 229 221 221 214 222 216 198 195 200 210 204 202 201 197 207 230 235 260 276 285 242 235 238 238 226 225 230 189 174 260 267 206 230 294 289
250 179 171 172 172 172 174 174 175 176 176 169 170 171 172 175 177 179 183 181 177 176 180 183 196 196 187 189 198 183 200 171 193 171 186 184 184 188 191 195 197 207 205 213 212 210 209 211 212 220 221 221 212 207 210 204 188 193 200 208 219 230 215 203 215 233 237 248 229 266 281 251 254 244 239 228 245 245 251 221 270 323 258 265 286
267 349 219 175 175 174 176 175 178 179 177 170 171 171 172 173 176 181 176 184 179 179 178 186 196 204 197 201 200 184 192 185 195 183 176 181 190 189 196 205 200 212 207 215 212 206 210 213 215 219 221 222 217 206 211 203 197 197 194 212 223 225 229 224 235 229 251 262 262 238 261 269 261 262 244 245 220 222 214 225 171 283 316 338 313
341 105 340 316 197 174 178 177 179 179 175 170 173 171 173 175 177 179 178 182 184 180 182 186 194 201 199 201 211 189 195 182 186 199 182 183 183 183 200 204 219 221 221 207 218 205 209 213 215 221 219 216 216 208 205 206 211 205 222 214 226 209 212 225 235 236 250 257 262 264 252 268 273 263 241 238 232 229 236 232 181 215 240 290 322
360 323 183 353 312 201 180 179 177 179 175 174 174 174 174 173 176 177 178 177 183 185 183 185 189 195 206 203 207 197 195 183 185 192 186 189 193 197 191 206 213 220 227 220 217 206 215 214 215 222 217 212 212 209 201 207 211 218 222 228 232 236 211 225 236 236 251 254 262 262 258 261 269 275 276 269 269 281 320 327 357 254 204 210 274
136 245 52 316 335 302 209 181 178 179 175 174 174 175 174 173 174 176 174 177 184 184 184 188 188 196 205 205 208 207 197 198 187 192 194 187 200 208 208 209 217 213 214 217 214 205 208 212 209 211 210 204 209 205 202 205 199 215 224 224 225 223 236 252 250 240 245 243 249 270 267 272 266 266 261 265 272 175 118 259 219 224 171 186 203
162 195 148 30 285 270 286 205 179 178 173 173 172 172 174 176 178 176 178 180 180 183 186 189 190 197 201 205 206 210 207 199 197 195 195 196 205 211 215 220 218 216 217 220 216 207 204 206 200 202 200 205 206 207 205 205 201 213 220 228 235 225 232 246 249 233 245 238 252 272 291 293 290 284 286 277 290 228 178 192 222 187 195 188 194
157 156 160 127 26 279 277 279 191 174 170 170 170 171 175 177 177 181 181 175 175 182 184 188 193 196 199 201 208 207 207 207 203 199 207 211 212 210 219 222 225 218 214 212 203 203 202 199 198 201 201 205 205 213 208 209 207 210 212 216 224 211 220 232 246 235 238 226 232 254 266 269 275 265 262 269 250 217 199 184 186 199 213 175 158
157 161 151 29 344 323 166 153 323 169 150 154 162 170 175 176 178 178 176 177 178 183 185 190 189 196 197 199 204 201 205 204 206 207 212 220 228 224 222 222 213 217 218 220 212 198 195 198 196 201 205 203 206 213 212 211 207 214 215 217 220 213 222 240 246 264 258 243 236 232 248 262 273 267 270 306 342 312 286 253 240 209 204 184 173
157 142 126 87 9 307 353 162 115 85 146 147 152 153 165 173 174 168 174 181 180 182 184 187 191 194 200 202 207 205 205 203 204 210 211 219 224 224 228 232 225 224 213 222 199 202 230 207 198 203 204 204 208 212 214 209 210 215 225 219 221 214 213 223 210 258 277 308 4 314 299 310 332 328 19 331 261 285 275 300 288 243 237 228 204
172 163 167 113 68 359 353 60 24 101 25 1 152 151 152 149 154 166 171 183 182 183 178 176 185 192 203 206 206 212 211 210 209 210 212 214 220 224 223 223 227 230 214 205 188 199 211 215 211 206 205 206 205 212 214 209 211 211 218 222 212 204 204 196 186 189 174 154 187 196 297 300 254 289 299 297 312 299 301 282 259 234 240 245 215
129 135 137 82 89 71 44 86 133 113 112 68 316 131 133 142 153 160 159 84 56 71 102 107 112 216 212 207 214 216 214 217 218 220 218 211 209 216 222 222 225 223 211 202 196 199 202 202 210 209 208 214 211 212 213 209 209 207 209 212 200 193 190 194 197 199 177 163 196 220 219 223 248 256 267 282 273 269 279 274 272 262 229 239 223
117 123 118 110 91 92 108 130 144 134 145 168 182 178 140 142 145 126 94 46 343 122 139 152 135 103 29 341 272 223 220 215 218 221 222 206 179 172 165 162 184 182 194 208 235 212 196 195 204 205 208 210 211 208 202 195 198 201 204 200 194 194 202 207 211 217 195 186 200 206 223 228 211 230 243 243 250 267 271 281 278 269 237 235 222
119 110 110 111 116 109 111 113 108 135 161 178 158 141 103 103 117 121 133 136 160 180 158 126 123 136 138 130 318 296 228 211 216 213 206 188 175 167 139 118 126 120 66 80 163 207 234 217 205 203 204 207 206 200 190 189 190 187 191 193 195 201 207 206 216 225 219 217 191 187 206 214 210 214 232 238 245 246 256 261 260 269 270 238 250
141 118 111 100 92 89 80 102 112 112 115 86 87 110 105 99 88 71 99 129 154 151 160 149 151 156 156 153 164 234 310 263 198 197 190 179 176 170 135 117 113 93 93 105 63 52 207 202 225 226 217 211 199 192 189 187 186 185 189 193 200 209 210 212 229 242 235 218 205 207 214 211 214 218 226 231 239 273 300 314 304 287 274 258 261
107 112 104 91 80 71 55 61 97 107 104 99 89 68 114 135 130 116 87 332 295 158 170 169 165 172 181 178 170 157 202 268 257 180 159 142 118 111 113 105 82 90 119 137 159 157 95 40 244 209 124 62 69 101 188 195 188 188 186 193 199 200 167 44 16 306 278 254 221 213 213 216 220 221 222 242 226 265 297 298 299 322 328 320 306
105 96 89 93 101 99 99 77 101 113 104 81 67 70 57 12 13 148 158 171 207 196 188 189 187 186 190 187 179 178 180 204 211 158 139 121 121 130 132 122 108 115 103 234 230 153 119 93 81 95 103 97 96 67 30 360 228 188 173 180 181 131 107 173 205 250 282 259 219 211 216 225 231 233 227 219 216 226 226 272 284 266 271 269 269
105 91 68 81 78 83 92 77 49 54 70 97 112 95 134 142 160 284 167 156 167 218 189 186 196 199 191 186 182 175 173 170 151 132 127 120 114 112 116 131 142 136 152 266 50 116 114 122 116 99 91 92 86 82 38 25 22 3 201 162 138 135 164 164 172 249 261 268 266 220 233 235 238 250 263 273 308 330 319 286 253 222 237 246 254
54 83 104 94 81 86 92 92 84 77 100 94 86 80 8 21 346 216 155 134 145 275 292 223 220 197 179 178 166 148 141 135 135 120 108 96 78 69 64 75 69 74 81 74 102 108 103 88 84 87 77 59 49 44 50 59 44 14 16 38 114 152 158 151 187 214 242 235 225 226 269 321 345 18 25 18 16 5 1 356 347 327 300 268 357
79 80 67 61 88 92 101 102 119 90 54 101 134 140 135 122 112 107 247 145 103 63 43 30 6 14 20 12 8 31 50 47 63 68 80 80 78 61 46 42 85 85 86 70 106 122 107 93 90 89 80 72 60 24 8 38 94 68 18 345 214 184 177 181 196 210 226 224 221 307 25 29 9 13 47 18 4 1 359 349 342 341 339 303 211
115 111 110 126 120 123 113 127 38 57 51 22 137 144 134 116 82 20 290 106 100 98 86 66 30 56 38 36 44 39 25 9 348 39 71 93 90 77 73 65 40 37 90 92 64 86 96 98 102 98 79 66 65 11 347 1 6 90 82 290 264 228 184 182 202 186 29 11 5 359 326 33 23 31 28 13 3 347 344 346 354 357 356 21 11
100 119 131 128 120 113 122 138 147 219 105 360 317 109 109 100 83 31 352 62 119 123 124 128 135 134 180 174 125 130 141 142 161 58 62 69 74 78 59 36 33 32 56 54 76 86 83 83 83 86 91 54 41 359 344 337 24 142 188 211 220 212 106 85 77 72 76 64 32 6 7 35 25 26 14 3 353 346 339 341 353 1 9 46 61
133 127 123 121 123 123 113 94 120 141 150 149 132 303 141 125 115 114 99 12 91 110 104 100 98 117 130 103 42 60 84 90 88 82 79 68 63 49 354 357 45 76 92 96 96 94 80 68 58 50 58 46 24 354 346 350 329 186 182 174 143 102 94 81 73 77 73 69 67 81 69 35 21 20 10 2 352 345 347 358 9 13 23 53 41
134 127 130 120 115 120 114 104 105 102 95 96 120 146 114 102 107 108 114 236 274 92 90 79 72 75 90 106 90 69 63 69 72 79 94 113 129 167 163 148 103 75 69 76 73 74 74 65 56 53 63 44 359 357 3 13 26 49 75 99 105 101 97 91 80 79 78 74 78 81 83 84 55 21 6 360 355 5 20 24 26 19 34 38 33
121 116 118 105 105 96 99 91 77 79 90 87 90 95 96 95 97 108 124 144 131 102 93 80 62 52 58 58 67 73 61 53 60 71 62 56 74 117 122 109 81 59 63 65 71 73 68 64 50 32 30 24 4 357 360 34 39 32 70 82 89 92 89 87 80 79 89 101 103 94 87 77 59 40 6 358 353 45 47 41 32 37 39 36 16
112 110 106 97 75 58 58 82 88 78 76 83 90 100 101 104 110 113 107 93 84 83 84 85 79 62 56 60 64 74 77 67 58 59 62 61 58 57 62 66 82 79 73 76 87 84 74 73 70 55 37 21 7 351 359 28 42 52 59 72 78 83 78 85 86 75 72 71 80 82 77 61 50 36 7 1 4 49 62 51 42 40 40 31 16
121 117 109 100 97 89 84 71 77 77 73 88 97 99 99 94 92 90 87 87 81 85 85 93 98 102 99 89 86 83 83 84 81 75 71 66 60 70 76 78 84 92 89 83 76 80 77 62 63 74 70 57 5 349 358 29 40 42 57 56 62 74 74 62 74 72 62 65 58 63 69 60 50 31 23 14 11 43 59 41 29 44 39 36 8
118 105 103 112 118 109 92 85 85 83 85 81 84 87 87 89 86 86 85 88 89 91 99 99 102 103 103 101 99 98 96 95 92 86 83 80 83 77 68 77 71 73 82 80 84 81 77 68 60 60 59 58 38 359 11 28 40 38 44 69 68 86 86 80 81 94 86 61 63 99 89 83 59 51 41 34 26 23 54 35 28 40 29 25 349
124 110 109 105 113 108 103 95 88 95 92 88 88 85 82 84 90 91 96 100 108 110 107 105 106 104 100 98 95 101 103 98 97 98 92 85 83 89 84 80 83 81 83 77 74 73 73 67 54 42 55 58 78 36 33 41 41 39 38 54 63 69 81 93 89 83 73 79 41 31 207 76 42 51 46 43 45 37 32 47 36 34 10 294 297
94 106 103 99 100 100 97 88 75 81 88 86 89 86 84 93 98 97 98 98 100 97 95 99 100 101 103 102 105 98 95 95 93 93 91 86 81 84 85 88 85 86 84 77 71 69 73 70 53 55 58 35 35 44 35 36 36 34 33 35 58 45 31 77 70 62 49 44 1 7 354 26 37 56 70 66 53 51 50 52 40 45 47 52 52
107 94 86 91 80 80 86 84 72 66 67 82 89 85 84 77 79 82 90 95 98 100 105 107 107 108 105 104 100 100 99 99 97 96 98 95 88 89 91 93 94 85 82 85 85 89 90 82 70 55 44 38 25 30 35 39 33 33 33 38 44 49 29 56 74 54 24 10 2 14 31 55 70 72 73 71 65 58 52 46 45 42 41 39 45
97 104 109 109 104 98 94 90 86 75 67 63 89 90 85 82 81 88 82 81 80 85 93 93 97 95 95 91 90 90 93 95 101 101 95 93 88 87 86 84 86 96 103 97 86 82 71 68 66 51 41 32 26 22 24 29 32 31 29 29 34 42 35 46 52 49 18 24 41 53 80 84 80 78 74 68 63 61 57 49 44 44 42 39 38
113 119 118 116 119 114 106 96 90 85 76 72 78 91 85 80 58 96 102 99 88 83 80 80 83 85 80 75 68 67 73 76 77 85 90 92 92 91 90 84 101 99 105 108 112 98 81 75 64 58 40 31 19 23 18 16 20 25 22 21 20 24 32 35 48 29 40 47 86 99 88 80 79 77 74 71 63 56 54 50 46 42 44 36 36
113 108 106 109 106 104 105 103 94 99 94 85 73 77 81 82 92 86 89 97 103 97 91 91 87 82 85 88 82 72 65 63 66 63 65 63 83 84 81 61 72 90 104 111 104 90 88 82 80 65 57 42 29 25 20 13 10 11 15 9 19 25 36 48 63 60 73 96 100 88 81 78 72 71 68 66 64 59 54 48 43 40 34 35 33
117 116 111 104 107 109 107 107 104 77 72 63 66 65 69 59 54 60 79 85 80 84 86 87 89 88 85 86 87 87 79 64 59 66 65 62 62 76 78 66 63 77 84 87 82 92 89 85 83 77 70 57 43 32 18 11 11 7 9 360 19 28 30 51 51 48 60 73 77 79 83 79 75 68 68 65 64 55 49 43 39 38 37 32 30
109 109 106 106 109 113 109 101 91 80 84 81 72 64 58 51 43 55 76 78 80 86 90 91 91 90 82 84 86 84 86 78 61 61 62 62 56 65 76 70 75 82 98 85 90 83 87 100 100 86 77 64 49 40 28 12 5 3 1 4 19 31 33 29 52 42 59 71 73 72 70 64 68 65 59 59 55 52 50 48 43 37 37 35 38
120 124 123 126 126 115 111 105 104 103 93 79 70 62 58 61 61 69 83 84 83 86 90 85 85 87 89 91 90 89 91 92 88 75 67 50 41 48 79 84 28 224 52 111 113 105 101 92 90 87 92 80 65 54 27 358 355 356 353 358 22 19 10 33 30 44 79 64 66 63 60 57 54 61 58 54 54 53 51 43 43 39 35 33 32
123 120 119 116 117 119 114 111 113 103 90 83 77 66 58 58 70 74 85 92 94 91 88 86 85 89 92 88 86 87 90 93 93 96 91 75 59 62 24 76 84 28 15 349 121 134 149 134 101 59 43 112 107 112 48 4 344 348 354 357 319 299 260 54 69 67 71 72 63 66 55 61 59 59 60 54 50 48 48 43 36 31 32 32 33
128 118 117 116 120 117 113 108 107 95 89 89 84 79 72 62 72 79 89 97 99 99 99 102 103 104 106 104 101 95 93 91 95 98 97 100 86 46 45 37 37 46 32 49 89 115 124 142 126 128 72 66 84 95 59 354 10 6 17 28 44 66 73 73 83 76 54 64 67 67 64 62 67 64 61 56 48 46 42 47 40 32 32 32 31